Vorticity
nan nan nan nan nan nan nan nan nan nan nan nan nan nan nan nan nan nan nan nan nan nan nan nan nan nan nan nan nan nan nan nan nan nan nan nan nan nan nan nan nan nan nan nan nan
nan 4 5 6 7 7 6 7 8 7 7 6 5 5 5 13 21 13 14 15 12 3 2 8 6 5 6 6 6 6 5 4 6 6 9 12 9 6 7 6 6 9 14 11 nan
nan 3 5 6 7 8 7 7 7 7 8 7 6 5 6 18 18 17 15 5 5 2 2 5 8 12 7 6 4 7 3 4 6 6 8 5 5 16 14 -3 12 18 12 4 nan
nan 5 4 4 6 8 8 7 7 7 7 9 7 5 18 17 5 11 9 6 6 5 6 6 6 8 7 8 7 10 9 7 5 7 5 6 13 8 11 2 8 17 9 9 nan
nan 5 6 5 5 7 7 7 8 7 6 10 7 9 17 10 8 5 9 7 4 7 7 5 6 7 5 4 10 5 10 9 6 6 6 8 13 6 -5 3 3 14 11 7 nan
nan 6 4 5 7 6 5 6 7 7 7 7 6 13 11 -1 10 8 5 2 6 5 5 7 5 6 7 7 6 5 8 8 7 7 9 12 8 5 7 9 8 8 2 5 nan
nan 7 6 6 5 5 7 6 6 7 8 7 10 13 12 7 -4 4 3 7 8 6 3 6 7 3 7 11 8 7 11 11 8 9 7 10 2 9 19 12 5 9 7 10 nan
nan 9 8 6 7 7 8 6 5 6 8 10 11 13 9 15 10 7 5 6 8 10 8 4 6 10 8 5 8 10 9 9 5 8 15 13 6 7 10 8 7 7 5 10 nan
nan 7 8 9 6 8 9 7 5 12 15 13 12 9 5 13 16 14 14 9 12 7 11 10 9 8 7 10 8 11 8 4 13 16 12 7 9 13 8 6 11 9 7 6 nan
nan 7 7 8 8 8 11 16 21 21 19 14 5 5 12 11 10 17 15 11 9 9 8 8 10 6 6 9 4 2 5 9 13 18 9 5 8 11 10 7 5 2 11 16 nan
nan 7 7 8 8 9 12 16 19 20 12 9 0 -6 -1 2 8 14 13 10 8 8 12 4 5 9 4 0 3 0 3 8 16 11 9 4 10 7 6 6 6 4 9 14 nan
nan 6 7 7 9 12 11 6 -0 1 17 12 0 3 0 1 4 5 14 10 9 7 4 8 8 6 3 4 7 7 9 7 8 7 9 8 13 15 5 8 10 6 11 10 nan
nan 7 7 7 12 15 13 1 -4 8 19 19 19 12 16 11 6 6 3 10 8 11 5 3 9 8 4 4 8 13 8 9 7 5 7 10 11 15 9 10 15 16 15 10 nan
nan 8 6 9 11 11 13 14 11 10 8 16 18 19 18 10 19 17 3 6 9 10 9 7 8 6 8 5 11 8 10 9 5 10 15 8 10 7 15 12 14 17 10 10 nan
nan 11 11 4 -0 6 2 3 21 16 6 14 16 15 21 7 4 23 13 5 14 5 8 7 12 9 3 13 11 4 9 8 8 9 10 7 12 4 14 16 9 15 13 10 nan
nan 11 5 4 8 2 -3 13 16 13 6 8 14 11 14 8 -11 12 23 3 9 15 5 5 2 12 12 10 7 8 10 9 9 8 8 13 5 9 14 16 8 10 15 9 nan
nan 10 5 5 5 9 10 16 10 4 3 10 10 11 7 15 6 3 10 10 6 11 8 10 11 7 12 8 9 8 7 8 9 14 8 10 11 11 10 10 15 15 11 8 nan
nan 10 7 6 4 8 12 12 12 11 -3 -7 12 10 7 9 15 6 6 9 4 4 12 15 13 17 9 10 8 9 9 8 11 5 7 9 11 14 13 9 14 19 14 6 nan
nan 7 11 8 10 9 10 7 9 4 10 -3 1 11 16 6 12 15 9 13 12 5 1 9 7 11 5 12 7 9 10 5 7 8 11 7 6 15 16 10 10 13 15 14 nan
nan 12 15 10 10 5 10 8 7 1 -3 12 9 11 12 8 8 11 10 10 17 13 -2 -1 14 6 10 10 8 8 3 5 7 12 8 10 10 6 7 12 16 8 9 17 nan
nan 9 18 12 3 11 10 10 5 7 7 4 4 -1 -5 14 17 3 6 15 19 15 9 1 7 9 17 9 5 3 8 10 11 6 7 11 11 12 7 10 10 8 7 6 nan
nan 14 12 12 0 8 19 2 -4 11 10 2 7 14 7 5 19 16 10 13 9 18 21 4 5 14 7 13 16 5 8 6 4 9 11 11 9 14 3 10 9 7 6 7 nan
nan 13 16 8 8 7 13 10 3 7 2 7 12 7 3 7 11 21 14 10 14 10 12 11 2 5 11 25 21 5 4 7 4 12 9 5 11 8 7 11 11 8 8 8 nan
nan 7 14 9 9 15 10 14 10 4 9 11 4 -1 6 11 11 9 13 13 14 23 10 6 10 6 0 7 6 6 8 9 5 3 12 6 8 7 12 9 10 11 11 10 nan
nan 10 15 20 15 8 5 9 12 12 9 1 11 9 7 6 15 12 10 8 11 13 13 11 9 6 10 13 1 5 9 10 6 3 6 5 7 8 10 10 8 13 15 11 nan
nan 9 7 13 28 15 6 6 11 7 11 8 -1 6 11 10 8 3 14 13 5 10 12 8 16 15 6 13 14 14 9 10 5 6 11 10 7 11 7 11 14 12 13 11 nan
nan nan nan nan nan nan nan nan nan nan nan nan nan nan nan nan nan nan nan nan nan nan nan nan nan nan nan nan nan nan nan nan nan nan nan nan nan nan nan nan nan nan nan nan nan
CAPE
6 1 2 3 2 1 0 4 1 0 0 0 0 0 0 0 0 0 0 0 0 0 0 0 0 0 0 0 0 0 0 0 0 0 5 27 1 37 0 3 0 553 594 255 59
7 0 0 0 0 1 0 0 6 1 0 0 0 0 0 0 0 0 0 0 0 0 0 0 0 0 0 0 0 0 0 0 0 0 0 6 17 5 31 0 0 391 433 147 143
13 3 0 0 0 0 2 0 0 1 1 0 0 0 0 0 0 0 0 0 0 0 0 0 0 0 0 0 0 0 0 0 0 0 0 0 0 5 0 8 0 10 453 240 193
22 14 16 5 0 2 2 0 0 0 1 2 8 0 0 0 0 0 0 0 0 0 0 0 0 0 0 0 0 0 0 0 0 0 0 0 0 4 0 0 30 32 470 573 162
18 9 9 15 14 13 1 0 0 0 0 0 21 6 0 0 0 0 0 0 0 0 0 0 0 0 0 0 0 0 0 0 0 0 0 0 14 118 0 0 0 377 517 445 193
20 17 19 5 11 20 11 0 0 0 0 1 13 3 2 0 0 0 0 0 0 0 0 0 0 0 0 0 0 0 0 0 0 0 0 0 3 53 0 0 5 582 420 246 203
33 30 5 16 7 10 13 0 0 0 0 0 5 34 5 0 0 0 0 0 0 0 0 0 0 0 0 0 0 0 0 0 0 0 0 0 0 0 0 0 71 814 442 406 306
32 32 29 4 5 4 11 3 0 0 0 0 4 16 0 0 0 0 0 0 0 0 0 0 0 0 0 0 0 0 0 0 0 0 0 0 0 0 13 227 598 572 442 376 251
24 21 30 28 5 3 6 4 0 0 0 0 9 0 1 0 0 0 0 0 0 0 0 0 0 0 0 0 0 0 0 0 0 0 0 0 0 0 6 23 36 516 481 368 167
26 28 23 30 25 19 7 0 0 0 0 0 5 0 0 0 0 0 0 0 0 0 0 0 0 0 0 0 0 0 0 0 0 0 3 0 0 17 1 0 46 23 82 381 105
22 30 36 28 31 28 3 0 0 0 0 0 0 0 0 0 0 0 0 0 0 0 0 0 0 0 0 0 0 0 0 0 0 0 1 0 5 4 14 47 21 0 72 191 134
29 25 31 24 41 25 2 0 0 0 0 0 0 0 0 0 0 0 0 0 0 0 0 0 0 0 0 0 0 0 0 0 2 0 0 0 0 24 1 0 0 5 36 165 252
49 31 42 36 40 2 0 0 0 0 0 0 0 0 0 0 0 0 0 0 0 0 0 0 0 0 0 0 0 0 0 0 0 0 0 0 0 10 4 22 0 15 149 67 249
49 49 36 51 0 0 0 0 0 0 1 0 0 0 0 0 0 0 0 0 0 0 0 0 0 0 0 0 0 0 0 0 4 1 0 0 0 0 0 0 4 69 215 76 172
71 58 47 67 0 0 0 0 0 22 0 0 0 0 0 0 0 0 0 0 0 0 0 0 0 0 0 0 0 0 7 0 7 0 0 0 0 2 0 0 7 23 152 73 26
77 74 63 56 23 0 0 0 1 54 1 0 0 0 0 0 0 0 0 0 0 0 0 0 0 0 0 0 0 0 0 0 0 0 0 0 4 0 0 0 0 3 58 51 57
73 98 70 9 6 0 3 2 67 16 0 0 0 0 0 0 0 0 0 0 0 0 0 0 0 0 0 0 0 0 0 0 0 0 0 34 7 0 0 0 0 0 41 3 14
64 75 67 20 0 2 21 8 32 0 0 0 0 0 0 0 0 0 0 0 0 0 0 0 0 0 0 0 0 0 0 0 0 0 22 5 1 0 0 0 0 0 58 80 3
46 44 53 10 0 14 66 36 0 0 0 0 0 1 0 0 0 0 0 0 0 0 0 0 0 0 0 0 0 0 0 1 25 3 0 13 6 5 0 0 0 0 10 114 62
51 33 24 4 0 30 35 18 0 0 0 0 0 0 26 12 0 0 0 0 0 0 0 0 0 0 0 0 0 0 5 13 39 0 1 28 20 0 0 0 0 0 0 0 0
40 18 16 0 41 35 2 0 1 0 0 0 0 0 0 0 12 0 0 0 0 0 0 0 0 0 0 0 0 0 0 16 30 5 0 23 10 0 0 0 0 0 0 0 0
25 2 2 6 35 24 4 2 2 0 0 0 0 0 0 0 0 6 0 0 0 0 0 0 0 0 0 0 0 0 0 4 13 14 10 2 32 4 0 0 0 0 0 0 2
10 10 8 7 12 12 23 7 9 1 0 0 0 0 0 0 0 73 31 0 0 0 0 0 0 0 0 0 0 0 0 0 44 20 15 2 0 1 0 0 0 0 0 0 0
1 1 22 32 0 0 4 4 9 1 1 0 0 0 0 0 0 59 59 0 0 0 0 0 0 0 0 0 0 0 0 0 0 0 0 0 0 2 8 0 0 0 0 0 0
5 1 0 26 16 8 9 9 7 9 0 0 0 0 0 0 0 2 33 33 0 2 0 0 0 0 0 1 0 0 0 0 0 9 35 1 12 1 7 0 0 0 0 0 0
0 0 3 0 16 24 23 8 5 0 0 0 0 0 0 0 11 38 22 12 0 0 0 0 0 0 0 0 0 0 0 0 0 0 0 2 4 3 8 0 0 0 0 3 0
2 0 0 0 6 10 1 2 10 6 0 0 0 0 0 0 83 78 12 0 0 1 0 0 1 1 0 0 0 0 0 0 0 0 0 0 0 0 0 0 0 0 0 3 4